Date,TemperatureHighF,TemperatureAvgF,TemperatureLowF,DewpointHighF,DewpointAvgF,DewpointLowF,HumidityHigh,HumidityAvg,HumidityLow,PressureMaxIn,PressureMinIn,WindSpeedMaxMPH,WindSpeedAvgMPH,GustSpeedMaxMPH,PrecipitationSumIn
2013-8-1,89.3,81.0,77.4,77.0,74.2,70.4,89,80,62,30.04,29.92,0,0,0,0.15
2013-8-2,90.2,82.8,76.9,77.8,74.1,72.7,89,76,57,30.01,29.91,0,0,0,0.00
2013-8-3,90.4,82.6,78.5,78.3,74.6,72.5,85,77,63,30.06,29.96,0,0,0,0.34
2013-8-4,90.4,81.3,78.1,80.1,76.3,73.6,89,85,71,30.05,29.95,0,0,0,0.88
2013-8-5,90.4,82.8,77.2,81.5,76.7,71.6,91,82,67,29.98,29.87,0,0,0,0.58
2013-8-6,90.5,82.5,76.5,80.4,76.0,73.1,91,81,67,29.95,29.86,0,0,0,0.01
2013-8-7,90.7,83.6,78.8,79.0,76.0,73.8,89,78,62,29.95,29.88,0,0,0,0.31
2013-8-8,91.1,83.7,78.5,78.3,75.6,73.8,89,77,60,30.02,29.91,0,0,0,0.01
2013-8-9,91.3,83.6,78.1,77.8,74.5,71.1,87,75,59,30.04,29.95,0,0,0,0.00
2013-8-10,92.2,84.7,77.2,78.3,74.0,70.7,85,71,57,30.10,30.00,0,0,0,0.00
2013-8-11,92.9,85.6,78.8,78.6,74.6,70.7,86,71,53,30.13,30.02,0,0,0,0.00
2013-8-12,91.8,85.2,78.1,78.0,73.9,70.7,85,70,56,30.10,29.96,0,0,0,0.00
2013-8-13,93.8,86.4,79.2,77.6,74.0,69.6,82,68,47,30.02,29.88,0,0,0,0.00
2013-8-14,93.8,82.4,76.5,79.2,75.0,71.6,88,79,58,29.99,29.86,0,0,0,1.12
2013-8-15,90.9,82.6,76.9,79.8,75.2,72.4,90,79,59,30.00,29.88,0,0,0,0.02
2013-8-16,89.8,82.8,79.4,78.1,75.3,72.8,85,78,64,30.03,29.93,0,0,0,0.18
2013-8-17,90.0,81.9,78.1,80.3,76.1,73.3,91,83,67,30.06,29.95,0,0,0,0.21
2013-8-18,90.4,82.5,77.9,78.6,75.7,73.1,91,80,64,30.07,29.98,0,0,0,0.12
2013-8-19,91.6,82.5,77.0,79.7,75.4,72.7,91,80,65,30.06,29.93,0,0,0,0.01
2013-8-20,91.4,84.3,78.1,78.0,74.5,71.3,88,73,56,30.07,29.95,0,0,0,0.00
2013-8-21,90.7,82.0,78.1,78.3,75.0,73.3,88,80,61,30.08,30.00,0,0,0,0.46
2013-8-22,90.4,81.0,78.5,80.0,75.7,71.8,91,84,69,30.06,29.96,0,0,0,0.01
2013-8-23,90.4,81.0,77.6,79.3,75.0,72.5,89,82,64,30.00,29.92,0,0,0,0.15
2013-8-24,90.0,79.9,76.3,79.3,75.0,72.5,91,85,68,30.08,29.97,0,0,0,1.19
2013-8-25,85.0,78.8,75.6,77.4,74.1,72.2,91,86,73,30.13,30.05,0,0,0,0.53
2013-8-26,87.8,80.3,75.4,77.9,74.3,71.8,89,82,68,30.11,29.97,0,0,0,0.05
2013-8-27,87.8,81.1,75.6,74.4,71.4,67.2,88,73,57,30.04,29.96,0,0,0,0.00
2013-8-28,89.1,81.3,74.2,74.0,69.7,67.5,86,69,51,30.03,29.93,0,0,0,0.00
2013-8-29,90.7,82.9,76.0,75.0,72.0,69.1,85,71,54,30.00,29.88,0,0,0,0.00
2013-8-30,92.2,83.2,77.2,77.7,73.8,71.3,83,74,60,29.95,29.84,0,0,0,0.00
2013-8-31,91.1,82.6,77.2,78.2,74.2,71.6,85,76,60,29.94,29.84,0,0,0,0.08